Flag for Poland Weather past 2 weeks in Gdansk, Poland

Now
84 °F

Scattered clouds.


Feels Like: 87 °F
Forecast: 67 / 85 °F
Wind: 10 mph from Southeast

Location: Gdansk-Rebiechowo

Current Time: Jul 28, 2014 at 1:24:03 PM

Latest Report: Jul 28, 2014 at 1:00 PM


Visibility: N/A

Pressure: 29.92 "Hg

Humidity: 55%

Dew point: 66 °F

Location of GdanskLocation

Historic Weather in Gdansk — Graph

°F

Gdansk temperature yesterday

Maximum temperature yesterday: 86 °F (at 2:00 PM)
Minimum temperature yesterday: 63 °F (at 3:30 AM)
Average temperature yesterday: 75 °F

Past Weeks' High & Low Weather Summary

 TemperatureHumidityPressure
High86 °F (Jul 27, 2:00 PM)100% (Jul 18, 6:00 AM)30.21 "Hg (Jul 18, 6:00 AM)
Low52 °F (Jul 19, 5:00 AM)33% (Jul 27, 2:30 PM)29.71 "Hg (Jul 13, 12:00 PM)
Average69 °F71%30.04 "Hg
* Reported Jul 13 12:00 Noon — Jul 28 12:30 PM, Gdansk, Weather by CustomWeather, © 2014

Note: Actual official high and low records may vary slightly from our data, if they occured in-between our weather recording intervals... More about our weather records

Advertising

Gdansk weather history for previous 24 hours

 ConditionsComfort  
Time TempWeatherWind HumidityBarometerVisibility
12:30 PM
Jul 28
86 °FPassing clouds.7 mph49%29.92 "HgN/A
12:00 PM84 °FPassing clouds.8 mph51%29.92 "HgN/A
11:30 AM82 °FPassing clouds.7 mph55%29.92 "HgN/A
11:00 AM81 °FPassing clouds.5 mph58%29.92 "HgN/A
10:30 AM81 °FPassing clouds.6 mph58%29.92 "HgN/A
10:00 AM79 °FPassing clouds.3 mph61%29.92 "HgN/A
9:30 AM77 °FPassing clouds.3 mph65%29.92 "HgN/A
9:00 AM75 °FPassing clouds.5 mph69%29.92 "HgN/A
8:30 AM73 °FPassing clouds.7 mph74%29.92 "HgN/A
8:00 AM72 °FSunny.9 mph73%29.92 "Hg10 mi
7:30 AM70 °FSunny.8 mph78%29.92 "Hg10 mi
7:00 AM70 °FPassing clouds.7 mph78%29.92 "HgN/A
6:30 AM68 °FSunny.7 mph78%29.95 "Hg10 mi
6:00 AM68 °FSunny.5 mph78%29.95 "Hg10 mi
5:30 AM68 °FPassing clouds.3 mph78%29.92 "HgN/A
4:30 AM68 °FPassing clouds.6 mph83%29.92 "HgN/A
4:00 AM66 °FThundershowers. Passing clouds.12 mph94%29.92 "Hg6 mi
3:30 AM70 °FThunderstorms. Passing clouds.5 mph78%29.92 "Hg6 mi
3:00 AM70 °FThunderstorms. Passing clouds.7 mph78%29.95 "HgN/A
2:30 AM70 °FThunderstorms. Passing clouds.2 mph73%29.98 "HgN/A
2:00 AM72 °FThunderstorms. Passing clouds.3 mph69%29.98 "HgN/A
1:30 AM72 °FThunderstorms. Passing clouds.1 mph69%29.95 "HgN/A
1:00 AM70 °FClear.1 mph73%29.95 "Hg10 mi
12:30 AM72 °FPassing clouds.3 mph69%29.95 "HgN/A
12:00 AM72 °FClear.2 mph69%29.95 "Hg10 mi
11:30 PM
Jul 27
72 °FClear.2 mph69%29.95 "Hg10 mi
11:00 PM72 °FClear.5 mph69%29.95 "Hg10 mi
10:30 PM72 °FClear.6 mph69%29.95 "Hg10 mi
10:00 PM73 °FClear.5 mph61%29.95 "Hg10 mi
9:30 PM75 °FSunny.5 mph57%29.95 "Hg10 mi
9:00 PM77 °FPassing clouds.8 mph54%29.95 "HgN/A
8:30 PM79 °FSunny.7 mph54%29.95 "Hg10 mi
8:00 PM79 °FSunny.5 mph54%29.95 "Hg10 mi
7:30 PM81 °FSunny.7 mph51%29.95 "Hg10 mi
7:00 PM81 °FSunny.3 mph51%29.95 "Hg10 mi
6:30 PM81 °FSunny.3 mph51%29.92 "Hg10 mi
6:00 PM81 °FSunny.5 mph51%29.95 "Hg10 mi
5:30 PM82 °FSunny.9 mph45%29.95 "Hg10 mi
5:00 PM81 °FPassing clouds.6 mph51%29.95 "HgN/A
4:30 PM81 °FPassing clouds.9 mph48%29.95 "HgN/A
4:00 PM81 °FPassing clouds.10 mph51%29.95 "HgN/A
3:30 PM81 °FThunderstorms. Scattered clouds.12 mph48%29.98 "HgN/A
3:00 PM86 °FPassing clouds.7 mph35%29.98 "HgN/A
2:30 PM86 °FPassing clouds.9 mph33%29.98 "HgN/A
2:00 PM86 °FPassing clouds.7 mph35%29.98 "HgN/A
1:30 PM84 °FPassing clouds.8 mph43%29.98 "HgN/A
1:00 PM84 °FPassing clouds.9 mph43%29.98 "HgN/A
Weather by CustomWeather, © 2014

See weather overviewHow to use our weather pages